Flag for Germany Weather past 2 weeks in Völklingen, Saarland, Germany

Now
39 °F

Fog.


Feels Like: 39 °F
Forecast: 36 / 63 °F
Wind: 2 mph from North

Location: Saarbruecken / Ensheim

Current Time: Sep 23, 2014 at 5:05:45 AM

Latest Report: Sep 23, 2014 at 4:20 AM


Visibility: 0 mi

Pressure: 30.15 "Hg

Humidity: 100%

Dew point: 39 °F

Location of VölklingenLocation

Historic Weather in Völklingen — Graph

°F

Völklingen temperature yesterday

Maximum temperature yesterday: 59 °F (at 2:20 PM)
Minimum temperature yesterday: 43 °F (at 11:20 PM)
Average temperature yesterday: 50 °F

Past Weeks' High & Low Weather Summary

 TemperatureHumidityPressure
High77 °F (Sep 17, 3:20 PM)100% (Sep 15, 6:50 AM)30.18 "Hg (Sep 15, 6:50 AM)
Low41 °F (Sep 23, 1:20 AM)47% (Sep 8, 4:50 PM)29.86 "Hg (Sep 17, 3:20 PM)
Average61 °F80%30.03 "Hg
* Reported Sep 8 3:20 AM — Sep 23 3:50 AM, Völklingen, Weather by CustomWeather, © 2014

Note: Actual official high and low records may vary slightly from our data, if they occured in-between our weather recording intervals... More about our weather records

Advertising

Völklingen weather history for previous 24 hours

 ConditionsComfort  
Time TempWeatherWind HumidityBarometerVisibility
3:50 AM
Sep 23
41 °FFog.1 mph93%30.15 "Hg1 mi
3:20 AM43 °FFog.2 mph93%30.18 "Hg1 mi
2:50 AM41 °FFog.5 mph100%30.18 "Hg1 mi
2:20 AM41 °FFog.2 mph100%30.18 "Hg1 mi
1:50 AM41 °FFog.2 mph100%30.18 "Hg1 mi
1:20 AM41 °FFog.1 mph100%30.18 "Hg1 mi
12:50 AM43 °FFog.1 mph93%30.18 "Hg1 mi
12:20 AM43 °FFog.1 mph93%30.18 "Hg2 mi
11:50 PM
Sep 22
43 °FFog.3 mph93%30.18 "Hg2 mi
11:20 PM43 °FClear.2 mph93%30.18 "Hg4 mi
10:50 PM45 °FClear.1 mph93%30.18 "Hg10 mi
10:20 PM45 °FLight fog.2 mph93%30.18 "HgN/A
9:50 PM45 °FLight fog.2 mph100%30.18 "HgN/A
9:20 PM46 °FClear.3 mph93%30.18 "Hg10 mi
8:50 PM46 °FPassing clouds.2 mph93%30.18 "HgN/A
8:20 PM46 °FPassing clouds.2 mph93%30.18 "HgN/A
7:50 PM48 °FPassing clouds.2 mph87%30.15 "HgN/A
7:20 PM50 °FPassing clouds.3 mph82%30.15 "HgN/A
6:50 PM52 °FPassing clouds.3 mph82%30.15 "HgN/A
6:20 PM52 °FPassing clouds.10 mph82%30.12 "HgN/A
5:50 PM52 °FScattered clouds.10 mph82%30.12 "HgN/A
5:20 PM52 °FSprinkles. Partly sunny.15 mph82%30.12 "Hg4 mi
4:50 PM59 °FScattered clouds.14 mph59%30.09 "HgN/A
4:20 PM59 °FScattered clouds.12 mph63%30.09 "HgN/A
3:50 PM59 °FPassing clouds.13 mph59%30.09 "HgN/A
3:20 PM57 °FScattered clouds.16 mph72%30.09 "HgN/A
2:50 PM59 °FScattered clouds.14 mph68%30.09 "HgN/A
2:20 PM59 °FPartly sunny.16 mph68%30.09 "HgN/A
1:50 PM57 °FPartly sunny.13 mph67%30.12 "HgN/A
1:20 PM57 °FPartly sunny.10 mph67%30.12 "HgN/A
12:50 PM55 °FPassing clouds.9 mph77%30.12 "HgN/A
12:20 PM57 °FScattered clouds.13 mph67%30.15 "HgN/A
11:50 AM55 °FPassing clouds.8 mph82%30.15 "HgN/A
11:20 AM54 °FPartly sunny.8 mph88%30.15 "HgN/A
10:50 AM54 °FPartly sunny.8 mph88%30.15 "HgN/A
10:20 AM52 °FPartly sunny.7 mph100%30.15 "Hg5 mi
9:50 AM52 °FScattered clouds.7 mph94%30.15 "Hg4 mi
9:20 AM48 °FFog.6 mph100%30.15 "Hg2 mi
8:50 AM48 °FFog.6 mph100%30.15 "Hg1 mi
8:20 AM46 °FFog.5 mph100%30.15 "Hg1 mi
7:50 AM45 °FFog.5 mph100%30.15 "Hg1 mi
7:20 AM45 °FFog.3 mph100%30.12 "Hg0 mi
6:50 AM46 °FFog.3 mph93%30.12 "Hg1 mi
6:20 AM46 °FFog.3 mph93%30.12 "Hg1 mi
5:50 AM46 °FFog.3 mph93%30.12 "Hg1 mi
5:20 AM46 °FFog.5 mph100%30.12 "Hg1 mi
Weather by CustomWeather, © 2014

See weather overviewHow to use our weather pages